Content
SEND FEEDBACK

Daily
Averages
Monthly
Summary
United States of America

NEW YORK - CENTRAL PARK, NEW YORK


Home > North America > United States > New York
Elevation: 14 feet     Latitude: 40 47N     Longitude: 073 58W

WEATHER
 
SELECT A DAY
Number of Records: 151,321;   Date Range: 11/1/95 - 10/24/14
 
SHARE

PRINT THIS DATA

[ ← Previous Day ]
WEATHER ALMANAC - MAY 3, 2013
[ Next Day → ]
[ °C ]   °F
Weather ElementAverageHighLow
Temperature55.2 °F64.9 °F (2:51 pm)48.9 °F (11:51 pm)
Dewpoint38.5 °F43 °F (10:51 pm)33.1 °F (12:51 pm)
Humidity55 %80 % (11:51 pm)34 % (1:51 pm)
Barometer30.42 in30.46 in (7:51 am)30.38 in (3:51 pm)
Wind Speed6.7 mph15 mph (9:51 am)
Wind Gust24.2 mph (9:51 am)
Weather ElementAverage
Visibility10 mi
Wind DirectionENE (53.9 °)

Weather ElementTotal
Precipitation---
Heating Degree Days8.1 (Base 65)
Growing Degree Days6.9 (Base 50)
Averaged from 23 records on May 3, 2013
WEATHER CONDITIONS BREAKOUT
WIND DIRECTION BREAKOUT
WEATHER BY HOUR - MAY 3, 2013
[ °C ]   °F
Local TimeTemperatureDewpointHumidityBarometerVisibilityWind DirectionWind SpeedGust SpeedPrecipitationEventsConditions
1:51 AM54.0 °F42.1 °F64 %30.40 in10.0 miEast (80°)8.1 mphPartly Cloudy
2:51 AM54.0 °F42.1 °F64 %30.41 in10.0 miVariable3.5 mphMostly Cloudy
3:51 AM54.0 °F39.9 °F59 %30.42 in10.0 miENE (60°)11.5 mphMostly Cloudy
4:51 AM52.0 °F36.0 °F54 %30.43 in10.0 miEast (100°)8.1 mphPartly Cloudy
5:51 AM52.0 °F35.1 °F53 %30.44 in10.0 miVariable6.9 mphMostly Cloudy
6:51 AM52.0 °F35.1 °F53 %30.45 in10.0 miEast (80°)9.2 mph19.6 mphMostly Cloudy
7:51 AM52.0 °F35.1 °F53 %30.46 in10.0 miENE (70°)9.2 mph18.4 mphClear
8:51 AM54.0 °F36.0 °F51 %30.46 in10.0 miEast (80°)8.1 mphClear
9:51 AM55.0 °F35.1 °F47 %30.46 in10.0 miENE (70°)15.0 mph24.2 mphClear
10:51 AM55.9 °F35.1 °F45 %30.46 in10.0 miEast (80°)9.2 mph18.4 mphClear
11:51 AM60.1 °F35.1 °F39 %30.45 in10.0 miEast (80°)8.1 mph18.4 mphClear
12:51 PM61.0 °F33.1 °F35 %30.43 in10.0 miEast (100°)9.2 mphClear
1:51 PM64.0 °F35.1 °F34 %30.41 in10.0 miVariable6.9 mphClear
2:51 PM64.9 °F36.0 °F34 %30.40 in10.0 miENE (60°)8.1 mph18.4 mphClear
3:51 PM61.0 °F39.9 °F46 %30.38 in10.0 miNorthClear
4:51 PM59.0 °F39.0 °F48 %30.38 in10.0 miVariable3.5 mphClear
5:51 PM57.0 °F42.1 °F57 %30.38 in10.0 miVariable3.5 mphClear
6:51 PM54.0 °F41.0 °F62 %30.38 in10.0 miCalmClear
7:51 PM52.0 °F42.1 °F69 %30.38 in10.0 miVariable5.8 mphClear
8:51 PM51.1 °F42.1 °F71 %30.40 in10.0 miSouth (190°)4.6 mphClear
9:51 PM51.1 °F42.1 °F71 %30.40 in10.0 miVariable3.5 mphClear
10:51 PM50.0 °F43.0 °F77 %30.39 in10.0 miSouth (190°)4.6 mphClear
11:51 PM48.9 °F43.0 °F80 %30.38 in10.0 miCalmClear
Hourly data recorded from KNYC, located miles away from New York - Central Park, New York







STORIES FROM OUR PARTNERS